Wind_Speed
30 31 31 29 28 29 31 30 31 26 26 26 28 29 31 33 34 36 38 41 43 45 47 49 51 53 55 57 59 61 63 64 66 67 67 68 68 68 69 69 69 68 68 67
31 31 31 29 28 30 30 30 30 29 28 29 30 32 34 36 38 40 42 45 47 49 52 54 56 59 61 62 64 66 68 69 70 71 71 71 71 71 71 70 70 69 68 68
32 30 32 30 30 30 30 30 31 31 31 32 32 34 37 39 41 44 47 49 51 54 56 59 62 64 66 68 69 71 72 73 74 75 74 74 73 73 72 71 70 69 68 68
34 32 31 31 30 30 30 31 32 32 33 34 36 38 40 43 46 48 51 53 56 59 61 64 66 69 71 72 74 75 76 77 77 77 76 75 74 73 72 71 69 69 68 67
35 33 30 29 30 31 32 32 33 34 35 37 39 42 44 47 50 52 55 58 61 64 66 69 71 73 74 76 77 78 79 79 78 78 77 75 73 72 70 69 68 67 66 65
35 34 31 31 33 33 34 35 35 36 38 41 43 46 48 50 53 56 59 62 65 68 70 72 74 76 77 78 79 80 80 79 79 77 76 74 72 70 69 67 65 64 62 61
35 36 34 34 36 36 36 38 38 39 42 45 48 51 53 55 58 61 64 67 69 72 73 75 77 78 79 80 80 81 80 78 76 75 73 71 69 67 65 63 61 60 58 57
35 37 37 37 38 38 39 40 42 45 47 50 52 54 56 59 62 65 68 70 72 74 75 77 78 80 80 80 80 79 78 75 72 70 68 66 64 62 60 59 57 56 54 53
36 37 39 40 40 41 42 45 47 49 51 53 56 58 61 63 66 69 71 73 74 76 77 78 79 80 80 79 78 76 73 70 67 65 63 61 60 58 56 54 53 52 51 50
38 38 41 42 43 44 46 49 51 53 55 57 60 62 65 67 69 71 73 75 76 77 78 77 77 77 77 76 74 71 68 65 62 60 58 56 55 54 52 51 50 49 48 47
40 40 42 44 46 48 50 51 53 55 58 61 64 66 68 70 72 73 75 76 77 78 78 77 76 74 73 71 68 65 62 60 57 56 54 53 51 50 48 47 48 46 45 44
41 42 44 46 48 50 52 54 56 59 62 64 67 68 70 72 73 74 75 76 77 76 76 74 72 70 67 65 63 61 58 55 53 52 50 48 46 45 45 45 44 43 42 41
44 45 47 49 51 53 55 58 60 63 65 67 68 70 72 73 74 75 75 76 76 74 72 70 68 64 62 60 58 56 54 52 50 48 46 45 44 42 40 39 40 39 39 38
47 49 51 53 55 57 59 61 63 65 67 68 70 71 73 73 74 74 74 73 72 69 67 65 62 59 57 56 54 52 51 49 48 45 43 42 41 39 38 37 35 35 36 37
51 53 54 56 58 60 62 63 65 66 67 69 70 72 73 73 73 72 70 69 67 64 62 60 57 55 54 52 51 49 48 47 45 42 41 40 38 37 37 36 35 33 32 34
54 56 57 59 60 62 63 64 66 67 68 69 70 71 72 72 70 68 67 65 63 60 58 56 53 52 51 50 48 47 45 44 43 40 39 38 37 36 35 34 33 32 32 32
56 57 59 60 61 63 64 66 67 68 69 70 71 71 70 69 67 64 62 60 58 56 55 53 51 50 49 48 47 45 43 42 41 39 38 36 35 35 34 33 32 31 32 32
58 59 60 61 62 63 64 66 67 68 69 69 69 68 67 65 63 60 58 56 53 52 52 52 50 48 47 46 44 43 42 41 38 37 35 34 34 33 33 32 31 31 31 31
58 59 60 62 63 64 65 66 67 67 67 67 66 65 62 61 60 58 56 53 51 50 48 48 47 46 45 44 43 42 41 39 36 34 33 33 32 32 32 31 31 31 31 30
58 59 61 62 63 65 66 66 67 66 65 64 63 61 59 57 56 55 52 50 49 48 47 46 45 44 43 42 41 40 39 37 34 33 32 32 31 31 30 30 31 30 29 29
58 60 61 63 64 65 65 65 65 63 62 61 61 59 57 55 53 52 49 46 45 45 44 44 43 42 41 41 39 38 37 34 33 32 31 30 30 30 30 30 29 28 28 29
59 61 63 64 65 64 63 63 63 62 61 59 58 57 55 52 49 47 46 45 43 42 42 41 41 40 40 39 37 36 34 33 32 30 30 29 29 29 29 28 28 27 27 27
61 62 63 64 64 64 62 61 61 61 59 57 55 53 51 49 46 44 41 41 41 40 40 40 39 39 38 37 35 34 33 31 30 29 28 28 28 28 27 27 26 25 25 24
61 62 63 63 63 63 62 60 60 58 56 54 51 49 47 45 42 41 40 38 39 39 38 38 38 38 36 35 34 33 31 30 29 27 27 27 27 26 26 25 24 23 23 22
61 62 62 62 62 61 60 58 56 53 50 48 45 44 43 41 39 37 36 36 37 37 37 37 38 36 35 34 33 31 29 28 27 26 26 25 25 25 24 24 23 22 20 19
61 61 61 61 60 59 56 54 50 47 44 42 39 38 38 38 37 36 35 35 36 36 36 36 36 35 34 33 31 30 28 27 26 25 24 24 24 23 23 22 21 19 18 17
59 59 58 57 55 54 51 48 45 42 40 38 36 35 35 35 35 34 34 35 35 35 36 35 35 34 33 32 30 29 27 26 25 24 24 23 23 22 21 20 19 17 16 15
Wind_Direction
276 277 278 279 280 281 283 285 287 289 288 289 290 294 295 296 298 299 299 300 301 302 303 303 303 303 303 302 301 301 301 301 300 300 299 298 297 296 294 293 292 290 289 288
275 275 276 278 279 279 280 282 285 287 289 290 293 294 294 295 297 298 299 300 302 302 303 303 302 302 302 302 302 301 301 301 300 300 299 298 297 296 294 293 292 291 290 288
273 273 275 278 278 277 277 279 283 287 289 291 292 293 294 295 297 298 299 301 301 302 302 303 303 303 303 303 302 302 301 301 301 300 299 299 297 296 295 293 292 291 289 288
273 272 274 278 276 275 277 281 284 286 289 291 293 294 296 297 298 299 300 301 302 303 303 303 304 303 303 303 303 302 302 302 302 301 300 299 298 296 294 293 292 290 289 288
273 274 274 274 276 278 281 283 286 289 291 293 294 295 297 297 299 300 301 302 303 303 304 304 304 304 304 304 304 303 303 303 302 301 300 299 297 295 294 292 291 290 290 289
273 275 276 277 277 280 283 285 287 289 292 293 294 296 297 298 300 301 302 303 303 304 305 305 305 305 305 305 304 304 304 303 303 301 300 299 297 296 294 293 292 291 291 290
272 274 277 278 281 283 285 288 290 292 293 294 296 297 299 300 301 302 303 304 304 305 305 305 305 305 306 306 305 305 305 304 304 302 301 300 298 297 295 294 293 293 292 291
271 274 278 279 282 284 287 289 291 292 294 295 297 299 301 302 303 303 304 304 305 305 306 306 306 306 306 306 306 306 305 305 304 303 301 300 299 297 296 295 294 294 293 292
271 274 278 280 283 286 288 290 292 294 296 298 299 301 302 303 303 303 304 304 305 306 307 307 307 307 307 307 307 307 306 306 305 303 302 301 300 299 298 296 296 295 295 294
271 274 278 281 285 288 290 292 294 296 298 299 300 301 302 302 303 304 304 305 306 306 307 307 307 308 308 308 308 308 307 307 306 305 303 302 300 300 299 298 297 296 296 296
272 276 279 283 287 289 292 294 296 297 298 299 300 301 302 302 303 304 305 305 306 307 307 308 308 309 309 308 308 309 309 308 307 306 304 303 302 301 300 299 299 298 298 298
274 278 282 285 287 289 292 293 295 296 297 299 300 301 302 302 303 304 305 306 307 308 308 309 309 309 309 309 309 310 310 309 308 307 306 305 303 302 302 301 301 300 300 301
279 281 283 286 288 290 292 293 295 296 298 299 300 301 302 303 304 305 306 307 308 309 309 310 310 310 310 310 310 310 311 310 310 309 308 306 305 304 303 302 302 302 302 302
280 283 285 288 290 291 293 295 296 298 298 299 300 301 302 303 305 306 307 308 309 310 310 309 310 310 310 311 311 311 311 311 311 310 309 309 308 307 306 305 304 303 303 304
283 285 287 290 291 293 295 296 297 298 299 300 301 302 303 304 305 306 307 308 309 309 309 309 310 310 310 311 312 312 312 312 312 310 310 310 310 309 308 308 307 306 305 305
285 288 289 291 293 294 295 296 297 298 299 301 302 302 303 304 305 306 307 308 308 308 308 309 310 310 311 311 312 313 313 313 312 311 311 311 310 309 309 310 309 308 307 307
288 289 291 292 293 295 296 297 298 299 300 301 302 303 304 304 305 306 307 307 307 308 308 309 310 310 311 311 312 313 313 313 312 311 311 311 310 310 310 310 311 310 310 310
289 290 291 293 294 295 297 298 299 300 301 301 302 303 304 304 305 305 306 306 306 307 308 308 309 309 310 311 312 312 313 313 312 310 310 310 310 310 311 311 312 312 312 312
289 290 292 293 295 296 297 298 299 300 300 301 301 302 303 304 304 305 306 306 305 305 306 307 308 308 310 311 311 312 313 313 312 310 310 311 311 311 312 312 313 313 313 313
290 291 293 294 295 297 298 298 299 299 300 300 301 301 302 303 302 303 304 304 304 305 307 308 308 309 310 311 312 312 313 313 311 309 309 310 311 312 313 313 314 314 314 314
291 292 293 295 295 296 297 298 298 298 299 299 300 301 301 301 301 302 302 303 303 304 306 308 309 310 311 312 312 312 312 312 310 309 309 310 311 312 313 314 314 315 315 316
292 293 294 295 296 296 297 297 297 298 298 298 299 300 301 301 300 301 302 302 303 304 306 308 309 310 311 312 312 312 311 312 311 309 309 310 312 312 313 315 315 316 317 319
292 293 294 295 295 296 296 297 297 298 298 298 299 299 299 299 300 300 300 300 302 304 306 308 309 310 311 312 312 312 312 312 311 309 309 311 312 314 314 316 317 318 320 322
292 293 294 295 295 296 297 297 297 298 297 298 298 297 297 297 298 299 300 301 302 305 307 308 310 310 311 311 312 312 312 312 310 309 310 312 313 315 316 317 318 320 321 323
293 293 294 294 295 296 296 297 297 297 296 296 295 295 295 296 297 298 298 300 302 304 306 308 309 310 310 311 312 312 312 311 311 309 310 312 314 315 317 318 319 320 321 323
293 293 294 295 295 296 296 296 296 296 294 294 293 292 292 294 295 296 297 299 301 304 306 308 309 309 309 310 311 311 311 311 310 310 311 313 315 315 317 318 319 319 322 325
292 292 293 294 294 294 295 295 295 293 292 291 290 290 290 291 292 293 295 298 300 303 305 307 307 308 308 309 309 309 309 309 308 309 311 313 315 315 316 318 318 318 321 324
Height
5759 5757 5755 5754 5754 5751 5748 5746 5744 5745 5742 5741 5737 5734 5731 5727 5723 5719 5714 5710 5705 5700 5695 5689 5684 5678 5672 5665 5658 5651 5644 5637 5630 5622 5614 5607 5599 5592 5584 5577 5569 5563 5556 5549
5750 5749 5746 5746 5746 5743 5741 5738 5736 5735 5734 5732 5729 5726 5722 5718 5714 5709 5704 5699 5694 5688 5682 5677 5670 5664 5657 5650 5643 5635 5627 5619 5611 5604 5596 5587 5579 5572 5564 5556 5549 5542 5535 5528
5741 5740 5738 5739 5738 5735 5733 5731 5729 5727 5726 5723 5720 5716 5712 5708 5703 5698 5693 5687 5682 5676 5669 5663 5656 5648 5641 5633 5625 5617 5608 5600 5592 5583 5575 5567 5559 5550 5542 5535 5528 5521 5513 5507
5731 5732 5731 5732 5728 5726 5724 5723 5721 5719 5717 5714 5710 5706 5701 5696 5691 5686 5680 5674 5668 5661 5654 5647 5639 5632 5624 5615 5606 5598 5589 5580 5570 5562 5554 5546 5537 5529 5521 5513 5506 5499 5493 5486
5721 5721 5722 5722 5719 5717 5715 5714 5712 5709 5707 5703 5699 5695 5690 5684 5679 5673 5667 5660 5653 5646 5638 5630 5622 5613 5605 5596 5587 5577 5568 5559 5549 5540 5532 5524 5515 5507 5499 5492 5485 5478 5472 5466
5712 5710 5712 5713 5710 5707 5707 5705 5703 5700 5696 5692 5687 5683 5680 5673 5666 5660 5653 5645 5638 5629 5621 5612 5603 5594 5586 5577 5567 5557 5548 5538 5528 5518 5509 5501 5493 5485 5478 5471 5465 5459 5453 5446
5702 5700 5702 5702 5700 5698 5698 5695 5692 5688 5684 5680 5675 5670 5665 5658 5651 5644 5637 5629 5620 5612 5603 5594 5584 5575 5566 5556 5546 5536 5527 5517 5508 5497 5488 5479 5472 5464 5457 5451 5445 5440 5434 5429
5693 5691 5693 5690 5689 5688 5686 5682 5679 5675 5671 5666 5661 5655 5649 5642 5635 5627 5620 5612 5603 5595 5586 5575 5564 5555 5546 5536 5526 5517 5507 5498 5488 5478 5468 5459 5452 5445 5438 5432 5427 5422 5416 5412
5685 5684 5680 5679 5677 5675 5673 5669 5665 5661 5657 5652 5646 5640 5634 5627 5619 5611 5603 5594 5585 5577 5568 5557 5545 5534 5524 5516 5506 5497 5488 5478 5469 5460 5451 5442 5434 5428 5422 5415 5410 5405 5400 5396
5674 5673 5669 5667 5665 5663 5659 5655 5651 5646 5642 5636 5631 5625 5618 5611 5603 5594 5585 5576 5567 5558 5550 5540 5529 5517 5505 5495 5486 5478 5470 5461 5452 5443 5436 5428 5419 5412 5406 5401 5395 5390 5386 5381
5662 5661 5658 5656 5653 5650 5646 5642 5637 5632 5627 5621 5615 5609 5602 5594 5585 5577 5568 5559 5549 5540 5531 5521 5510 5500 5488 5477 5468 5461 5453 5445 5436 5428 5420 5413 5406 5399 5393 5388 5381 5376 5372 5367
5652 5651 5648 5645 5641 5638 5634 5629 5624 5619 5614 5606 5599 5593 5585 5577 5568 5559 5550 5541 5531 5522 5512 5502 5492 5483 5472 5462 5453 5445 5438 5430 5422 5414 5407 5400 5393 5388 5382 5375 5370 5364 5359 5354
5640 5638 5635 5632 5628 5625 5620 5616 5610 5604 5598 5591 5583 5575 5568 5560 5551 5541 5532 5522 5513 5504 5494 5484 5475 5467 5457 5448 5440 5431 5423 5416 5409 5402 5394 5388 5381 5376 5372 5367 5360 5354 5349 5344
5627 5624 5622 5618 5614 5609 5605 5599 5594 5587 5580 5573 5566 5558 5550 5542 5533 5523 5514 5504 5495 5487 5477 5468 5460 5452 5443 5435 5427 5419 5411 5404 5397 5390 5383 5377 5371 5365 5360 5356 5352 5347 5341 5335
5613 5610 5607 5603 5598 5594 5589 5583 5577 5570 5563 5556 5548 5540 5532 5524 5516 5507 5497 5488 5480 5471 5462 5454 5447 5439 5431 5423 5416 5408 5400 5393 5386 5380 5374 5368 5362 5357 5352 5347 5342 5337 5333 5328
5598 5595 5591 5587 5583 5577 5572 5566 5560 5553 5546 5538 5531 5522 5514 5506 5498 5490 5481 5471 5464 5456 5448 5441 5434 5427 5419 5412 5404 5398 5390 5383 5376 5371 5365 5359 5354 5349 5344 5339 5334 5329 5324 5320
5583 5579 5575 5571 5566 5560 5555 5548 5542 5535 5527 5520 5513 5505 5497 5489 5482 5474 5466 5458 5450 5442 5435 5428 5422 5415 5408 5401 5394 5387 5381 5374 5368 5362 5356 5351 5346 5341 5336 5331 5326 5321 5317 5312
5567 5563 5559 5554 5549 5544 5538 5531 5524 5516 5509 5501 5494 5487 5480 5472 5465 5458 5452 5445 5438 5432 5424 5416 5410 5404 5397 5391 5384 5378 5371 5365 5359 5354 5349 5344 5338 5333 5328 5324 5319 5314 5310 5305
5550 5546 5542 5537 5531 5526 5520 5513 5506 5499 5491 5483 5476 5471 5464 5457 5449 5443 5437 5431 5425 5419 5414 5407 5400 5394 5387 5381 5374 5368 5362 5356 5351 5346 5341 5336 5331 5326 5321 5317 5312 5307 5303 5298
5534 5529 5525 5519 5514 5507 5501 5495 5488 5481 5474 5466 5460 5454 5449 5443 5436 5430 5424 5419 5412 5406 5401 5395 5389 5384 5378 5372 5365 5359 5354 5348 5343 5339 5334 5329 5324 5320 5315 5310 5306 5301 5296 5291
5516 5512 5507 5501 5496 5490 5483 5477 5470 5464 5459 5452 5445 5439 5434 5429 5423 5416 5411 5407 5402 5395 5390 5385 5379 5373 5368 5362 5357 5351 5345 5340 5335 5331 5327 5322 5318 5313 5309 5304 5299 5294 5290 5285
5498 5494 5488 5483 5477 5473 5467 5460 5453 5447 5442 5436 5430 5424 5418 5414 5409 5404 5399 5393 5390 5385 5380 5375 5369 5364 5359 5353 5348 5343 5337 5332 5328 5324 5320 5315 5311 5307 5302 5298 5293 5288 5284 5279
5481 5475 5470 5464 5458 5453 5450 5444 5437 5430 5425 5420 5415 5409 5404 5400 5395 5391 5388 5383 5378 5374 5370 5365 5360 5355 5350 5344 5339 5335 5330 5325 5321 5317 5313 5309 5305 5300 5296 5292 5287 5283 5278 5274
5463 5457 5452 5446 5440 5435 5431 5427 5420 5415 5409 5404 5399 5394 5390 5387 5383 5379 5375 5372 5368 5364 5360 5355 5350 5345 5341 5336 5331 5327 5322 5318 5314 5310 5306 5302 5299 5294 5290 5286 5282 5278 5274 5270
5444 5439 5434 5428 5423 5418 5413 5409 5404 5399 5394 5390 5386 5381 5377 5374 5371 5369 5365 5362 5358 5354 5350 5346 5342 5337 5332 5328 5324 5319 5315 5311 5307 5304 5300 5297 5293 5289 5285 5281 5277 5274 5270 5266
5427 5422 5417 5411 5406 5400 5396 5392 5388 5384 5380 5377 5374 5370 5366 5363 5360 5358 5355 5352 5349 5345 5341 5337 5333 5328 5324 5320 5316 5312 5309 5305 5301 5298 5294 5291 5288 5284 5280 5277 5273 5270 5267 5263
5410 5404 5400 5396 5391 5385 5380 5377 5373 5370 5367 5364 5362 5359 5356 5353 5351 5348 5345 5342 5339 5336 5332 5328 5324 5320 5316 5313 5309 5305 5302 5299 5295 5292 5289 5286 5283 5279 5276 5272 5269 5266 5263 5261